Oshkosh, WI

8:50 PM CDT on March 26, 2017 (GMT -0500)
Wittman Regional

Weather History for KOSH - June, 2013

Change the Weather History Date:

Sunday, June 9, 2013

  Actual Average Record
Temperature  
Mean Temperature 64 °F -  
Max Temperature 75 °F 75 °F 94 °F (1985)
Min Temperature 55 °F 54 °F 34 °F (1977)
Degree Days  
Heating Degree Days 1    
Growing Degree Days 14 (Base 50)    
Moisture  
Dew Point 54 °F    
Average Humidity 69    
Maximum Humidity 78    
Minimum Humidity 53    
Precipitation  
Precipitation 0.00 in - - ()
Sea Level Pressure  
Sea Level Pressure 29.93 in    
Wind  
Wind Speed 6 mph (ESE)    
Max Wind Speed 17 mph    
Max Gust Speed 21 mph    
Visibility 9 miles    
Events      
Averages and records for this station are not official NWS values.
T = Trace of Precipitation, MM = Missing Value Source: NWS Daily Summary

Daily Weather History Graph

Daily Weather History Graph

Search for Another Location

Airport or City:

Trip Planner

Search our weather history database for the weather conditions in past years. The results will help you decide how hot, cold, wet, or windy it might be!

Date:

Astronomy

Jun. 09, 2013 Rise Set
Actual Time 5:11 AM CDT 8:35 PM CDT
Civil Twilight 4:35 AM CDT 9:11 PM CDT
Nautical Twilight 3:48 AM CDT 9:59 PM CDT
Astronomical Twilight 2:49 AM CDT 10:58 PM CDT
Moon 6:10 AM CDT (6/9) 9:19 PM CDT (6/9)
Length of Visible Light 16h 36m
Length of Day
15h 24m
New Moon, 1% of the Moon is Illuminated
Jun 9
New Moon
Jun 16
First Quarter
Jun 23
Full
Jun 29
Last Quarter
Jul 8
New

Hourly Weather History & Observations

Time (CDT) Temp. Dew Point Humidity Pressure Visibility Wind Dir Wind Speed Gust Speed Precip Events Conditions
12:53 AM 57.9 °F 48.0 °F 70% 30.02 in 10.0 mi SE 3.5 mph - N/A   Clear
1:53 AM 57.0 °F 46.0 °F 67% 30.01 in 10.0 mi SE 5.8 mph - N/A   Clear
2:53 AM 57.0 °F 45.0 °F 64% 30.01 in 10.0 mi Calm Calm - N/A   Clear
3:53 AM 55.9 °F 46.9 °F 72% 29.99 in 10.0 mi Calm Calm - N/A   Clear
4:53 AM 57.0 °F 48.0 °F 72% 29.99 in 10.0 mi East 3.5 mph - N/A   Partly Cloudy
5:53 AM 57.9 °F 50.0 °F 75% 29.99 in 10.0 mi Calm Calm - N/A   Scattered Clouds
6:53 AM 59.0 °F 50.0 °F 72% 30.00 in 10.0 mi Calm Calm - N/A   Overcast
7:53 AM 59.0 °F 50.0 °F 72% 29.98 in 10.0 mi Calm Calm - 0.00 in   Overcast
8:53 AM 61.0 °F 52.0 °F 72% 29.98 in 10.0 mi East 6.9 mph - N/A   Overcast
9:53 AM 62.1 °F 54.0 °F 75% 29.98 in 10.0 mi East 9.2 mph - N/A   Mostly Cloudy
10:53 AM 64.0 °F 55.9 °F 75% 29.96 in 10.0 mi East 10.4 mph - N/A   Mostly Cloudy
11:53 AM 66.0 °F 55.9 °F 70% 29.95 in 10.0 mi East 12.7 mph - N/A   Clear
12:53 PM 70.0 °F 57.9 °F 65% 29.93 in 10.0 mi East 9.2 mph - N/A   Clear
1:53 PM 73.9 °F 57.9 °F 57% 29.90 in 10.0 mi ESE 11.5 mph - N/A   Clear
2:53 PM 73.9 °F 55.9 °F 53% 29.88 in 10.0 mi East 17.3 mph - N/A   Clear
3:53 PM 73.9 °F 60.1 °F 62% 29.87 in 8.0 mi ESE 15.0 mph 19.6 mph N/A   Clear
4:53 PM 72.0 °F 61.0 °F 68% 29.86 in 7.0 mi ESE 12.7 mph 20.7 mph N/A   Clear
5:53 PM 72.0 °F 60.1 °F 66% 29.86 in 8.0 mi ESE 10.4 mph - N/A   Clear
6:53 PM 72.0 °F 60.1 °F 66% 29.85 in 10.0 mi ESE 11.5 mph - N/A   Partly Cloudy
7:53 PM 68.0 °F 59.0 °F 73% 29.85 in 6.0 mi East 8.1 mph - N/A   Haze
8:53 PM 66.9 °F 57.9 °F 73% 29.85 in 8.0 mi East 10.4 mph - N/A   Overcast
9:53 PM 66.0 °F 57.0 °F 73% 29.85 in 8.0 mi ESE 8.1 mph - N/A   Overcast
10:53 PM 64.9 °F 57.0 °F 75% 29.84 in 9.0 mi ESE 9.2 mph - N/A   Clear
11:53 PM 64.9 °F 57.9 °F 78% 29.83 in 8.0 mi ESE 9.2 mph - N/A   Scattered Clouds